Overview Statistics Trail Chart Weather Telemetry Raw packets
 

This is the latest recevied weather packets stored in our database for station/object KB0BDN-13. If no packets are shown the sender has not sent any weather packets the latest 10 day(s).

<< 3 4 5 6 7 8 9 >>
Time Temp. Humidity Pressure Rain* Wind** Luminosity Snow
1788637594 25° C 64% 1012.3 hPa 0 mm - - -
1788636694 25° C 63% 1012.7 hPa 0 mm - - -
1788635794 26.11° C 60% 1012.7 hPa 0 mm - - -
1788635653 26.11° C 60% 1012.7 hPa 0 mm - - -
1788634894 25.56° C 60% 1012.7 hPa 0 mm - - -
1788634752 25.56° C 61% 1012.8 hPa 0 mm - - -
1788633994 25° C 62% 1012.8 hPa 0 mm - - -
1788633852 25° C 64% 1012.8 hPa 0 mm - - -
1788633094 25° C 64% 1012.8 hPa 0 mm - - -
1788632194 24.44° C 64% 1012.7 hPa 0 mm - - -
1788631294 23.89° C 67% 1012.6 hPa 0 mm - - -
1788631152 23.89° C 67% 1012.6 hPa 0 mm - - -
1788630393 24.44° C 64% 1012.6 hPa 0 mm - - -
1788630253 24.44° C 66% 1012.9 hPa 0 mm - - -
1788629493 23.89° C 64% 1012.9 hPa 0 mm - - -
1788629352 23.89° C 64% 1013 hPa 0 mm - - -
1788628593 23.89° C 67% 1013 hPa 0 mm - - -
1788628452 23.89° C 67% 1013.3 hPa 0 mm - - -
1788627693 23.33° C 69% 1013.3 hPa 0 mm - - -
1788627552 23.33° C 68% 1013 hPa 0 mm - - -
1788626793 23.33° C 68% 1013 hPa 0 mm - - -
1788626652 23.33° C 68% 1013.3 hPa 0 mm - - -
1788625893 22.78° C 70% 1013.3 hPa 0 mm - - -
1788624993 22.22° C 71% 1013 hPa 0 mm - - -
1788624852 22.22° C 72% 1013 hPa 0 mm - - -

* Rain latest hour (hover to see other rain measurements)
** Current wind speed in m/s (hover to see current wind gust speed)